﻿ProjectID	SampleID	SampleType	TaxonomyID	UniqCodeType	UniqCode	SampleName	ScientificName	CommonName	CollectionYear	CollectionMonth	CollectionDay	SamplingTimeStartEnd	SamplingTimeAMPM	SamplingDuration	WeatherStartEnd	CollectionRegion	CollectionCountry	CollectionArea	CollectionLatitudeFrom	CollectionLatitudeTo	CollectionLongitudeFrom	CollectionLongitudeTo	Sex	TissueOrgan	TissueLipid	TissueMoist	Weight	WeightUnit	Length	LengthUnit	LengthType	GrowthStage	Age	Disease	TemperatureStartEnd	WaterTemperatureStartEnd	pH	DO	EC	EC_temp	Salinity	SS	WaterDepthM	TransparencyM	WaterColor	SedimentTemperatureStartEnd	SedimentDepthM	SedimentAppearance	SedimentColor	SedimentSurfaceColor	SedimentOdor	SedimentImpurities	SedimentMoistureOnSiteAnalysis	IgnitionLossOnSiteAnalysis	SoilDepthM	FlowRate	MeanPM10	MeanTotalSuspendedParticles	HumidityStartEnd	WindDirectionStartEnd	WindSpeedMSStartEnd	AmountOfCollectedAirStartEnd	Remarks	RegisterDate	UpdateDate
PRA000100	SAA006971	ST015				OsakaCity07_2018Summer_AM	Water	"River water"	2018	7	24		AM		Fair	Asia	Japan	"Juhachijou-ohashi bridge, Kanzaki-gawa Riv., Osaka city"	34.748986		135.49703														33.7	30.32	7.38		32.5																									2020/06/22	2020/06/22
PRA000100	SAA006972	ST015				OsakaCity07_2018Summer_PM	Water	"River water"	2018	7	24		PM		Fair	Asia	Japan	"Juhachijou-ohashi bridge, Kanzaki-gawa Riv., Osaka city"	34.748986		135.49703														36.6	32.05	7.44		47.4																									2020/06/22	2020/06/22
PRA000100	SAA006973	ST015				OsakaCity08_2018Summer_AM	Water	"River water"	2018	7	24		AM		Fair	Asia	Japan	"Enoki bridge, Kanzaki-gawa Riv., Osaka city"	34.7513		135.492125														33.4	30.68	7.25		35.3																									2020/06/22	2020/06/22
PRA000100	SAA006974	ST015				OsakaCity08_2018Summer_PM	Water	"River water"	2018	7	24		PM		Fair	Asia	Japan	"Enoki bridge, Kanzaki-gawa Riv., Osaka city"	34.7513		135.492125														36.6	32.04	7.3		34.5																									2020/06/22	2020/06/22
PRA000100	SAA006975	ST015				OsakaCity09_2018Summer_AM	Water	"River water"	2018	7	24		AM		Fair	Asia	Japan	"Upstream of Ochiai wharf (Kita-tsumori side), Kizu-gawa Riv., Osaka city"	34.64405		135.479776														35.1	30.26	7.25		780																									2020/06/22	2020/06/22
PRA000100	SAA006976	ST015				OsakaCity09_2018Summer_PM	Water	"River water"	2018	7	24		PM		Fair	Asia	Japan	"Upstream of Ochiai wharf (Kita-tsumori side), Kizu-gawa Riv., Osaka city"	34.64405		135.479776														36.6	31.72	7.25		529																									2020/06/22	2020/06/22
PRA000100	SAA006977	ST015				OsakaCity10_2018Summer_AM	Water	"River water"	2018	7	24		AM		Fair	Asia	Japan	"Downstream of Ochiai wharf (Tsumori side), Kizu0gawa Riv., Osaka city"	34.64216		135.479906														34.4	29.64	6.79		1100																									2020/06/22	2020/06/22
PRA000100	SAA006978	ST015				OsakaCity10_2018Summer_PM	Water	"River water"	2018	7	24		PM		Fair	Asia	Japan	"Downstream of Ochiai wharf (Tsumori side), Kizu0gawa Riv., Osaka city"	34.64216		135.479906														37	31.1	7		804																									2020/06/22	2020/06/22
PRA000100	SAA006979	ST015				OsakaCity11_2018Summer_AM	Water	"River water"	2018	7	24		AM		Fair	Asia	Japan	"Shigino-ohashi bridge, Daini Neyagawa Riv., Osaka city"	34.688627		135.545553														33.2	29.5	6.93		54.8																									2020/06/22	2020/06/22
PRA000100	SAA006980	ST015				OsakaCity11_2018Summer_PM	Water	"River water"	2018	7	24		PM		Fair	Asia	Japan	"Shigino-ohashi bridge, Daini Neyagawa Riv., Osaka city"	34.688627		135.545553														35.5	31.67	7.02		57																									2020/06/22	2020/06/22
PRA000100	SAA006981	ST015				OsakaCity12_2018Summer_AM	Water	"River water"	2018	7	24		AM		Fair	Asia	Japan	"Shimoshiromi bridge, Daini Neyagawa Riv., Osaka city"	34.689562		135.537748														32.5	28.59	7.08		53.1																									2020/06/22	2020/06/22
PRA000100	SAA006982	ST015				OsakaCity12_2018Summer_PM	Water	"River water"	2018	7	24		PM		Fair	Asia	Japan	"Shimoshiromi bridge, Daini Neyagawa Riv., Osaka city"	34.689562		135.537748														35.9	31.4	7.03		56.5																									2020/06/22	2020/06/22
PRA000100	SAA006983	ST015				OsakaCity13_2018Summer_AM	Water	"River water"	2018	7	24		AM		Fair	Asia	Japan	"Kema Watergate, Oh-kawa Riv., Osaka City"	34.721115		135.517125														33	30.14	7.9		17																									2020/06/22	2020/06/22
PRA000100	SAA006984	ST015				OsakaCity13_2018Summer_PM	Water	"River water"	2018	7	24		PM		Fair	Asia	Japan	"Kema Watergate, Oh-kawa Riv., Osaka City"	34.721115		135.517125														36	31.64	8.2		16.7																									2020/06/22	2020/06/22
PRA000100	SAA006985	ST015				HyogoPref14_2018Summer_AM	Water	"River water"	2018	6	27		AM		Fair	Asia	Japan	"Upstream of Sewage Treatment Plant, Muko-gawa Riv., Hyogo"	34.860611		135.266559														29	25.8	7.8		23.1				>0.3																					2020/06/22	2020/06/22
PRA000100	SAA006986	ST015				HyogoPref14_2018Summer_PM	Water	"River water"	2018	6	27		PM		Fair	Asia	Japan	"Upstream of Sewage Treatment Plant, Muko-gawa Riv., Hyogo"	34.860611		135.266559														30	27.7	8.5		22.4				>0.3																					2020/06/22	2020/06/22
PRA000100	SAA006987	ST015				HyogoPref15_2018Summer_AM	Water	"River water"	2018	6	27		AM		Fair	Asia	Japan	"Downstream of Sewage Treatment Plant, Muko-gawa Riv., Hyogo"	34.862497		135.271899														30.5	26	7.5		27				>0.3																					2020/06/22	2020/06/22
PRA000100	SAA006988	ST015				HyogoPref15_2018Summer_PM	Water	"River water"	2018	6	27		PM		Fair	Asia	Japan	"Downstream of Sewage Treatment Plant, Muko-gawa Riv., Hyogo"	34.862497		135.271899														30.5	27.4	8		28.4				>0.3																					2020/06/22	2020/06/22
PRA000100	SAA006989	ST015				HyogoPref16_2018Summer_AM	Water	"River water"	2018	6	22		AM		Fair	Asia	Japan	"Inagawa bridge, Ina-gawa Riv., Hyogo"	34.769842		135.43758														29.5	21.9	8.3		15.7				>0.3																					2020/06/22	2020/06/22
PRA000100	SAA006990	ST015				HyogoPref16_2018Summer_PM	Water	"River water"	2018	6	22		PM		Fair	Asia	Japan	"Inagawa bridge, Ina-gawa Riv., Hyogo"	34.769842		135.43758														31.2	24.1	8		15.7				>0.3																					2020/06/22	2020/06/22
PRA000100	SAA006991	ST015				HyogoPref17_2018Summer_AM	Water	"River water"	2018	6	22		AM		Fair	Asia	Japan	"Tokura  bridge, Ina-gawa Riv., Hyogo"	34.761609		135.455115														28	24.4	8		39.2				>0.3																					2020/06/22	2020/06/22
PRA000100	SAA006992	ST015				HyogoPref17_2018Summer_PM	Water	"River water"	2018	6	22		PM		Fair	Asia	Japan	"Tokura  bridge, Ina-gawa Riv., Hyogo"	34.761609		135.455115														31	23.3	7.8		39.2				>0.3																					2020/06/22	2020/06/22
PRA000100	SAA006993	ST015				HyogoPref18_2018Summer_AM	Water	"River water"	2018	6	14		AM		Fair	Asia	Japan	"Banzai  bridge, Kako-gawa Riv., Hyogo"	34.822275		134.935273														22	21.3	7.4		14.61				>0.3																					2020/06/22	2020/06/22
PRA000100	SAA006994	ST015				HyogoPref18_2018Summer_PM	Water	"River water"	2018	6	14		PM		Fair	Asia	Japan	"Banzai  bridge, Kako-gawa Riv., Hyogo"	34.822275		134.935273														29.2	23.3	7.1		15.95				>0.3																					2020/06/22	2020/06/22
PRA000100	SAA006995	ST015				HyogoPref19_2018Summer_AM	Water	"River water"	2018	6	14		AM		Fair	Asia	Japan	"Leftshore of Kamisho Bridge, Kako-gawa Riv., Hyogo"	34.796573		134.900129														23	21.6	7.2		15.63				>0.3																					2020/06/22	2020/06/22
PRA000100	SAA006996	ST015				HyogoPref19_2018Summer_PM	Water	"River water"	2018	6	14		PM		Fair	Asia	Japan	"Leftshore of Kamisho Bridge, Kako-gawa Riv., Hyogo"	34.796573		134.900129														25.5	23.2	7.1		14.81				>0.3																					2020/06/22	2020/06/22
PRA000100	SAA006997	ST015				HyogoPref20_2018Summer_AM	Water	"River water"	2018	6	14		AM		Fair	Asia	Japan	"Rightshore of Kamisho Bridge, Kako-gawa Riv., Hyogo"	34.797826		134.899419														23	21.5	7.1		8.52				>0.3																					2020/06/22	2020/06/22
PRA000100	SAA006998	ST015				HyogoPref20_2018Summer_PM	Water	"River water"	2018	6	14		PM		Fair	Asia	Japan	"Rightshore of Kamisho Bridge, Kako-gawa Riv., Hyogo"	34.797826		134.899419														25.5	22.6	7		15.45				>0.3																					2020/06/22	2020/06/22
PRA000100	SAA006999	ST015				HyogoPref21_2018Summer_AM	Water	"River water"	2018	6	14		AM		Fair	Asia	Japan	"Kakogawa  Bridge, Kako-gawa Riv., Hyogo"	34.772654		134.828232														25.8	22.7	7		14.48				>0.3																					2020/06/22	2020/06/22
PRA000100	SAA007000	ST015				HyogoPref21_2018Summer_PM	Water	"River water"	2018	6	14		PM		Fair	Asia	Japan	"Kakogawa  Bridge, Kako-gawa Riv., Hyogo"	34.772654		134.828232														26.8	23.7	7		14.7				>0.3																					2020/06/22	2020/06/22
PRA000100	SAA007001	ST015				NagoyaCity22_2018Summer_AM	Water	"River water"	2018	8	10		AM		Fair	Asia	Japan	"Chuji bridge, Yamazaki-gawa Riv., Nagoya city, Aichi"	35.10286		136.920674																																											2020/06/22	2020/06/22
PRA000100	SAA007002	ST015				NagoyaCity22_2018Summer_PM	Water	"River water"	2018	8	10		PM		Fair	Asia	Japan	"Chuji bridge, Yamazaki-gawa Riv., Nagoya city, Aichi"	35.10286		136.920674														35	32.8	7.99																											2020/06/22	2020/06/22
PRA000100	SAA007003	ST015				NagoyaCity23_2018Summer_AM	Water	"River water"	2018	8	10		AM		Fair	Asia	Japan	"Hosei bridge, Yamazaki-gawa Riv., Nagoya city, Aichi"	35.097963		136.919463																																											2020/06/22	2020/06/22
PRA000100	SAA007004	ST015				NagoyaCity23_2018Summer_PM	Water	"River water"	2018	8	10		PM		Fair	Asia	Japan	"Hosei bridge, Yamazaki-gawa Riv., Nagoya city, Aichi"	35.097963		136.919463														35.1	33	8.31																											2020/06/22	2020/06/22
PRA000100	SAA007005	ST015				NagoyaCity24_2018Summer_AM	Water	"River water"	2018	8	10		AM		Fair	Asia	Japan	"Johoku bridge, Hori-kawa Riv., Nagoya city, Aichi"	35.192455		136.903276																																											2020/06/22	2020/06/22
PRA000100	SAA007006	ST015				NagoyaCity24_2018Summer_PM	Water	"River water"	2018	8	10		PM		Fair	Asia	Japan	"Johoku bridge, Hori-kawa Riv., Nagoya city, Aichi"	35.192455		136.903276														37	30.8	7.06																											2020/06/22	2020/06/22
PRA000100	SAA007007	ST015				NagoyaCity25_2018Summer_AM	Water	"River water"	2018	8	10		AM		Fair	Asia	Japan	"Nakatsuchito bridge, Hori-kawa Riv., Nagoya city, Aichi"	35.190792		136.899916																																											2020/06/22	2020/06/22
PRA000100	SAA007008	ST015				NagoyaCity25_2018Summer_PM	Water	"River water"	2018	8	10		PM		Fair	Asia	Japan	"Nakatsuchito bridge, Hori-kawa Riv., Nagoya city, Aichi"	35.190792		136.899916														35.6	29.5	7.01																											2020/06/22	2020/06/22
PRA000100	SAA007009	ST015				NagoyaCity26_2018Summer_AM	Water	"River water"	2018	8	10		AM		Fair	Asia	Japan	"Ooseko bridge, Hori-kawa Riv., Nagoya city, Aichi"	35.119784		136.903238																																											2020/06/22	2020/06/22
PRA000100	SAA007010	ST015				NagoyaCity26_2018Summer_PM	Water	"River water"	2018	8	10		PM		Fair	Asia	Japan	"Ooseko bridge, Hori-kawa Riv., Nagoya city, Aichi"	35.119784		136.903238														36.2	31.3	7.29																											2020/06/22	2020/06/22
PRA000100	SAA007011	ST015				NagoyaCity27_2018Summer_AM	Water	"River water"	2018	8	10		AM		Fair	Asia	Japan	"Kizaemon bridge, Hori-kawa Riv., Nagoya city, Aichi"	35.111162		136.900416																																											2020/06/22	2020/06/22
PRA000100	SAA007012	ST015				NagoyaCity27_2018Summer_PM	Water	"River water"	2018	8	10		PM		Fair	Asia	Japan	"Kizaemon bridge, Hori-kawa Riv., Nagoya city, Aichi"	35.111162		136.900416														36.1	31.6	7.81																											2020/06/22	2020/06/22
PRA000100	SAA007013	ST015				NagoyaCity28_2018Summer_AM	Water	"River water"	2018	8	10		AM		Fair	Asia	Japan	"Maizuru bridge, Shinhori-kawa Riv., Nagoya city, Aichi"	35.159524		136.91																																											2020/06/22	2020/06/22
PRA000100	SAA007014	ST015				NagoyaCity28_2018Summer_PM	Water	"River water"	2018	8	10		PM		Fair	Asia	Japan	"Maizuru bridge, Shinhori-kawa Riv., Nagoya city, Aichi"	35.159524		136.91														36	29.4	7.06																											2020/06/22	2020/06/22
PRA000100	SAA007015	ST015				Tokyo29_2018Summer_AM	Water	"River water"	2018	7	19		AM		Fair	Asia	Japan	"Nagata bridge, Tama-gawa Riv., Tokyo"	35.739004		139.318815														32.8	23.6																												2020/06/22	2020/06/22
PRA000100	SAA007016	ST015				Tokyo29_2018Summer_PM	Water	"River water"	2018	7	19		PM		Fair	Asia	Japan	"Nagata bridge, Tama-gawa Riv., Tokyo"	35.739004		139.318815														32.4	25.2																												2020/06/22	2020/06/22
PRA000100	SAA007017	ST015				Tokyo30_2018Summer_AM	Water	"River water"	2018	7	19		AM		Cloudy	Asia	Japan	"Hino-bashi bridge, Tama-gawa Riv., Tokyo"	35.683052		139.412492														30.6	27.8																												2020/06/22	2020/06/22
PRA000100	SAA007018	ST015				Tokyo30_2018Summer_PM	Water	"River water"	2018	7	19		PM		Fair	Asia	Japan	"Hino-bashi bridge, Tama-gawa Riv., Tokyo"	35.683052		139.412492														32.4	30.4																												2020/06/22	2020/06/22
PRA000100	SAA007019	ST015				Tokyo31_2018Summer_AM	Water	"River water"	2018	7	19		AM		Cloudy	Asia	Japan	"Sekido bridge, Tama-gawa Riv., Tokyo"	35.653498		139.455179														30.7	27.1																												2020/06/22	2020/06/22
PRA000100	SAA007020	ST015				Tokyo31_2018Summer_PM	Water	"River water"	2018	7	19		PM		Fair	Asia	Japan	"Sekido bridge, Tama-gawa Riv., Tokyo"	35.653498		139.455179														34.7	30.5																												2020/06/22	2020/06/22
PRA000100	SAA007021	ST015				Tokyo32_2018Summer_AM	Water	"River water"	2018	7	19		AM		Fair	Asia	Japan	"Tamagawara-bashi bridge, Tama-gawa Riv., Tokyo"	35.643876		139.525471														34.4	28.2																												2020/06/22	2020/06/22
PRA000100	SAA007022	ST015				Tokyo32_2018Summer_PM	Water	"River water"	2018	7	19		PM		Fair	Asia	Japan	"Tamagawara-bashi bridge, Tama-gawa Riv., Tokyo"	35.643876		139.525471														33.3	29.7																												2020/06/22	2020/06/22
PRA000100	SAA007023	ST015				Tokyo33_2018Summer_AM	Water	"River water"	2018	7	19		AM		Cloudy	Asia	Japan	"Hoon-bashi bridge, Oguri-gawa Riv., Tokyo"	35.648532		139.457918														31.6	26.3																												2020/06/22	2020/06/22
PRA000100	SAA007024	ST015				Tokyo33_2018Summer_PM	Water	"River water"	2018	7	19		PM		Fair	Asia	Japan	"Hoon-bashi bridge, Oguri-gawa Riv., Tokyo"	35.648532		139.457918														34.8	31.8																												2020/06/22	2020/06/22
PRA000100	SAA007025	ST015				Tokyo34_2018Summer_AM	Water	"River water"	2018	7	19		AM		Fair	Asia	Japan	"Takahata bridge, Asa-kawa Riv., Tokyo"	35.664964		139.407388														29	25.6																												2020/06/22	2020/06/22
PRA000100	SAA007026	ST015				Tokyo34_2018Summer_PM	Water	"River water"	2018	7	19		PM		Fair	Asia	Japan	"Takahata bridge, Asa-kawa Riv., Tokyo"	35.664964		139.407388														33.6	30.8																												2020/06/22	2020/06/22
PRA000100	SAA007027	ST015				Tokyo35_2018Summer_AM	Water	"River water"	2018	9	27		AM		Rainy	Asia	Japan	"Seiryu-bashi bridge, Yanase-gawa Riv., Kiyose city, Tokyo"	35.80483		139.538193														17	19																												2020/06/22	2020/06/22
PRA000100	SAA007028	ST015				Tokyo35_2018Summer_PM	Water	"River water"	2018	9	27		PM		Rainy	Asia	Japan	"Seiryu-bashi bridge, Yanase-gawa Riv., Kiyose city, Tokyo"	35.80483		139.538193														17.5	19																												2020/06/22	2020/06/22
PRA000100	SAA007029	ST015				Tokyo36_2018Summer_AM	Water	"River water"	2018	9	27		AM		Rainy	Asia	Japan	"Sakae bridge, Yanase-gawa Riv., Shiki city, Saitama"	35.835634		139.580318														18.5	20.7																												2020/06/22	2020/06/22
PRA000100	SAA007030	ST015				Tokyo36_2018Summer_PM	Water	"River water"	2018	9	27		PM		Cloudy	Asia	Japan	"Sakae bridge, Yanase-gawa Riv., Shiki city, Saitama"	35.835634		139.580318														17	21																												2020/06/22	2020/06/22
PRA000100	SAA007031	ST015				Tokyo37_2018Summer_AM	Water	"River water"	2018	9	26		AM		Cloudy	Asia	Japan	"Ohgi-ohashi bridge, Ara-kawa Riv., Adachi Ward, Tokyo"	35.757589		139.770681														19.5	22																												2020/06/22	2020/06/22
PRA000100	SAA007032	ST015				Tokyo37_2018Summer_PM	Water	"River water"	2018	9	26		PM		Cloudy	Asia	Japan	"Ohgi-ohashi bridge, Ara-kawa Riv., Adachi Ward, Tokyo"	35.757589		139.770681														20.8	22																												2020/06/22	2020/06/22
PRA000100	SAA007033	ST015				Tokyo38_2018Summer_AM	Water	"River water"	2018	9	26		AM		Cloudy	Asia	Japan	"Horikiri bridge, Ara-kawa Riv., Tokyo"	35.745773		139.819413														21	22.3																												2020/06/22	2020/06/22
PRA000100	SAA007034	ST015				Tokyo38_2018Summer_PM	Water	"River water"	2018	9	26		PM		Cloudy	Asia	Japan	"Horikiri bridge, Ara-kawa Riv., Tokyo"	35.745773		139.819413														20	22.3																												2020/06/22	2020/06/22
PRA000100	SAA007035	ST015				Tokyo39_2018Summer_AM	Water	"River water"	2018	8	23		AM		Fair	Asia	Japan	"Odai Bridge, Sumida-gawa Riv., Tokyo"	35.754176		139.762566														34.8	28	7.2																											2020/06/22	2020/06/22
PRA000100	SAA007036	ST015				Tokyo39_2018Summer_PM	Water	"River water"	2018	8	23		PM		Fair	Asia	Japan	"Odai Bridge, Sumida-gawa Riv., Tokyo"	35.754176		139.762566														34.3	29	7.14																											2020/06/22	2020/06/22
PRA000100	SAA007037	ST015				Tokyo40_2018Summer_AM	Water	"River water"	2018	8	23		AM		Fair	Asia	Japan	"Ryogoku Bridge, Sumida Riv., Tokyo"	35.694258		139.788704														33	28.5	7.15																											2020/06/22	2020/06/22
PRA000100	SAA007038	ST015				Tokyo40_2018Summer_PM	Water	"River water"	2018	8	23		PM		Fair	Asia	Japan	"Ryogoku Bridge, Sumida Riv., Tokyo"	35.694258		139.788704														35	28	7.2																											2020/06/22	2020/06/22
PRA000100	SAA007039	ST015				Tokyo41_2018Summer_AM	Water	"River water"	2018	6	29		AM		Fair	Asia	Japan	"Shiodome bridge, Naka-gawa Riv., Saitama"	35.800727		139.85166														31	27.3	7.71																											2020/06/22	2020/06/22
PRA000100	SAA007040	ST015				Tokyo41_2018Summer_PM	Water	"River water"	2018	6	29		PM		Fair	Asia	Japan	"Shiodome bridge, Naka-gawa Riv., Saitama"	35.800727		139.85166														32.9	27.5	7.79																											2020/06/22	2020/06/22
PRA000100	SAA007041	ST015				Tokyo42_2018Summer_AM	Water	"River water"	2018	6	29		AM		Fair	Asia	Japan	"Heiwa bridge, Naka-gawa Riv., Tokyo"	35.727687		139.848471														31.8	27	7.6																											2020/06/22	2020/06/22
PRA000100	SAA007042	ST015				Tokyo42_2018Summer_PM	Water	"River water"	2018	6	29		PM		Fair	Asia	Japan	"Heiwa bridge, Naka-gawa Riv., Tokyo"	35.727687		139.848471														32.1	27.4	7.77																											2020/06/22	2020/06/22
PRA000100	SAA007043	ST015				OsakaCity07_2018Winter_AM	Water	"River water"	2018	2	28		AM		Cloudy	Asia	Japan	"Juhachijou-ohashi bridge, Kanzaki-gawa Riv., Osaka city"	34.748986		135.49703														14	13.25	7.25		57.4																									2020/06/22	2020/06/22
PRA000100	SAA007044	ST015				OsakaCity07_2018Winter_PM	Water	"River water"	2018	2	28		PM		Cloudy	Asia	Japan	"Juhachijou-ohashi bridge, Kanzaki-gawa Riv., Osaka city"	34.748986		135.49703														16.4	12.97	7.27		51.8																									2020/06/22	2020/06/22
PRA000100	SAA007045	ST015				OsakaCity08_2018Winter_AM	Water	"River water"	2018	2	28		AM		Cloudy	Asia	Japan	"Enoki bridge, Kanzaki-gawa Riv., Osaka city"	34.7513		135.492125														16.7	13.65	7.12		66.9																									2020/06/22	2020/06/22
PRA000100	SAA007046	ST015				OsakaCity08_2018Winter_PM	Water	"River water"	2018	2	28		PM		Cloudy	Asia	Japan	"Enoki bridge, Kanzaki-gawa Riv., Osaka city"	34.7513		135.492125														16	14.05	7.2		123																									2020/06/22	2020/06/22
PRA000100	SAA007047	ST015				OsakaCity09_2018Winter_AM	Water	"River water"	2018	2	28		AM		Cloudy	Asia	Japan	"Upstream of Ochiai wharf (Kita-tsumori side), Kizu-gawa Riv., Osaka city"	34.64405		135.479776														18.3	12.58	7.38		1910																									2020/06/22	2020/06/22
PRA000100	SAA007048	ST015				OsakaCity09_2018Winter_PM	Water	"River water"	2018	2	28		PM		Cloudy	Asia	Japan	"Upstream of Ochiai wharf (Kita-tsumori side), Kizu-gawa Riv., Osaka city"	34.64405		135.479776														17	12.1	7.42		1300																									2020/06/22	2020/06/22
PRA000100	SAA007049	ST015				OsakaCity10_2018Winter_AM	Water	"River water"	2018	2	28		AM		Cloudy	Asia	Japan	"Downstream of Ochiai wharf (Tsumori side), Kizu0gawa Riv., Osaka city"	34.64216		135.479906														17.4	14.06	7.09		1880																									2020/06/22	2020/06/22
PRA000100	SAA007050	ST015				OsakaCity10_2018Winter_PM	Water	"River water"	2018	2	28		PM		Cloudy	Asia	Japan	"Downstream of Ochiai wharf (Tsumori side), Kizu0gawa Riv., Osaka city"	34.64216		135.479906														16.5	14.58	6.98		1820																									2020/06/22	2020/06/22
PRA000100	SAA007051	ST015				OsakaCity11_2018Winter_AM	Water	"River water"	2018	2	28		AM		Cloudy	Asia	Japan	"Shigino-ohashi bridge, Daini Neyagawa Riv., Osaka city"	34.688627		135.545553														15	16.32	6.78		59.5																									2020/06/22	2020/06/22
PRA000100	SAA007052	ST015				OsakaCity11_2018Winter_PM	Water	"River water"	2018	2	28		PM		Cloudy	Asia	Japan	"Shigino-ohashi bridge, Daini Neyagawa Riv., Osaka city"	34.688627		135.545553														19.3	16.89	6.83		65.3																									2020/06/22	2020/06/22
PRA000100	SAA007053	ST015				OsakaCity12_2018Winter_AM	Water	"River water"	2018	2	28		AM		Cloudy	Asia	Japan	"Shimoshiromi bridge, Daini Neyagawa Riv., Osaka city"	34.689562		135.537748														15.2	15.67	6.87		51.4																									2020/06/22	2020/06/22
PRA000100	SAA007054	ST015				OsakaCity12_2018Winter_PM	Water	"River water"	2018	2	28		PM		Cloudy	Asia	Japan	"Shimoshiromi bridge, Daini Neyagawa Riv., Osaka city"	34.689562		135.537748														18.9	16.27	6.85		63.9																									2020/06/22	2020/06/22
PRA000100	SAA007055	ST015				OsakaCity13_2018Winter_AM	Water	"River water"	2018	2	28		AM		Cloudy	Asia	Japan	"Kema Watergate, Oh-kawa Riv., Osaka City"	34.721115		135.517125														14.5	11.36	7.63		18.3																									2020/06/22	2020/06/22
PRA000100	SAA007056	ST015				OsakaCity13_2018Winter_PM	Water	"River water"	2018	2	28		PM		Cloudy	Asia	Japan	"Kema Watergate, Oh-kawa Riv., Osaka City"	34.721115		135.517125														18.8	12.54	7.79		24.2																									2020/06/22	2020/06/22
PRA000100	SAA007057	ST015				HyogoPref14_2018Winter_AM	Water	"River water"	2018	2	15		AM		Cloudy	Asia	Japan	"Upstream of Sewage Treatment Plant, Muko-gawa Riv., Hyogo"	34.860611		135.266559														7	5	8		26				>0.3																					2020/06/22	2020/06/22
PRA000100	SAA007058	ST015				HyogoPref14_2018Winter_PM	Water	"River water"	2018	2	15		PM		Cloudy	Asia	Japan	"Upstream of Sewage Treatment Plant, Muko-gawa Riv., Hyogo"	34.860611		135.266559														9	7.1	7.5		23				>0.3																					2020/06/22	2020/06/22
PRA000100	SAA007059	ST015				HyogoPref15_2018Winter_AM	Water	"River water"	2018	2	15		AM		Cloudy	Asia	Japan	"Downstream of Sewage Treatment Plant, Muko-gawa Riv., Hyogo"	34.862497		135.271899														8.8	7.6	8		34				>0.3																					2020/06/22	2020/06/22
PRA000100	SAA007060	ST015				HyogoPref15_2018Winter_PM	Water	"River water"	2018	2	15		PM		Cloudy	Asia	Japan	"Downstream of Sewage Treatment Plant, Muko-gawa Riv., Hyogo"	34.862497		135.271899														8.8	9.1	7.1		31.6				>0.3																					2020/06/22	2020/06/22
PRA000100	SAA007061	ST015				HyogoPref16_2018Winter_AM	Water	"River water"	2018	2	20		AM		Fair	Asia	Japan	"Inagawa bridge, Ina-gawa Riv., Hyogo"	34.769842		135.43758														9.5	9.1	7.1		19.4				>0.3																					2020/06/22	2020/06/22
PRA000100	SAA007062	ST015				HyogoPref16_2018Winter_PM	Water	"River water"	2018	2	20		PM		Fair	Asia	Japan	"Inagawa bridge, Ina-gawa Riv., Hyogo"	34.769842		135.43758														11	14	6.9		19.9				>0.3																					2020/06/22	2020/06/22
PRA000100	SAA007063	ST015				HyogoPref17_2018Winter_AM	Water	"River water"	2018	2	20		AM		Fair	Asia	Japan	"Tokura  bridge, Ina-gawa Riv., Hyogo"	34.761609		135.455115														10	16.1	6.7		43.8				>0.3																					2020/06/22	2020/06/22
PRA000100	SAA007064	ST015				HyogoPref17_2018Winter_PM	Water	"River water"	2018	2	20		PM		Fair	Asia	Japan	"Tokura  bridge, Ina-gawa Riv., Hyogo"	34.761609		135.455115														10.5	17.2	6.5		44.8				>0.3																					2020/06/22	2020/06/22
PRA000100	SAA007065	ST015				HyogoPref18_2018Winter_AM	Water	"River water"	2018	2	8		AM		Fair	Asia	Japan	"Banzai  bridge, Kako-gawa Riv., Hyogo"	34.822275		134.935273														6	3.8	7.6		21.9				>0.3																					2020/06/22	2020/06/22
PRA000100	SAA007066	ST015				HyogoPref18_2018Winter_PM	Water	"River water"	2018	2	8		PM		Fair	Asia	Japan	"Banzai  bridge, Kako-gawa Riv., Hyogo"	34.822275		134.935273														7.5	6.6	7.2		21.3				>0.3																					2020/06/22	2020/06/22
PRA000100	SAA007067	ST015				HyogoPref19_2018Winter_AM	Water	"River water"	2018	2	8		AM		Fair	Asia	Japan	"Leftshore of Kamisho Bridge, Kako-gawa Riv., Hyogo"	34.796573		134.900129														4	4.8	7.7		26.6				>0.3																					2020/06/22	2020/06/22
PRA000100	SAA007068	ST015				HyogoPref19_2018Winter_PM	Water	"River water"	2018	2	8		PM		Fair	Asia	Japan	"Leftshore of Kamisho Bridge, Kako-gawa Riv., Hyogo"	34.796573		134.900129														6.5	6.3	7.6		29.9				>0.3																					2020/06/22	2020/06/22
PRA000100	SAA007069	ST015				HyogoPref20_2018Winter_AM	Water	"River water"	2018	2	8		AM		Fair	Asia	Japan	"Rightshore of Kamisho Bridge, Kako-gawa Riv., Hyogo"	34.797826		134.899419														4.5	5	7.2		24.5				>0.3																					2020/06/22	2020/06/22
PRA000100	SAA007070	ST015				HyogoPref20_2018Winter_PM	Water	"River water"	2018	2	8		PM		Fair	Asia	Japan	"Rightshore of Kamisho Bridge, Kako-gawa Riv., Hyogo"	34.797826		134.899419														6.5	5.5	7.6		24.7				>0.3																					2020/06/22	2020/06/22
PRA000100	SAA007071	ST015				HyogoPref21_2018Winter_AM	Water	"River water"	2018	2	8		AM		Fair	Asia	Japan	"Kakogawa  Bridge, Kako-gawa Riv., Hyogo"	34.772654		134.828232														5	4.5	7.2		24.1				>0.3																					2020/06/22	2020/06/22
PRA000100	SAA007072	ST015				HyogoPref21_2018Winter_PM	Water	"River water"	2018	2	8		PM		Fair	Asia	Japan	"Kakogawa  Bridge, Kako-gawa Riv., Hyogo"	34.772654		134.828232														7	5.3	7.6		24.1				>0.3																					2020/06/22	2020/06/22
PRA000100	SAA007073	ST015				NagoyaCity22_2018Winter_AM	Water	"River water"	2018	2	27		AM		Fair	Asia	Japan	"Chuji bridge, Yamazaki-gawa Riv., Nagoya city, Aichi"	35.10286		136.920674																																											2020/06/22	2020/06/22
PRA000100	SAA007074	ST015				NagoyaCity22_2018Winter_PM	Water	"River water"	2018	2	27		PM		Fair	Asia	Japan	"Chuji bridge, Yamazaki-gawa Riv., Nagoya city, Aichi"	35.10286		136.920674															17	7.32																											2020/06/22	2020/06/22
PRA000100	SAA007075	ST015				NagoyaCity23_2018Winter_AM	Water	"River water"	2018	2	27		AM		Fair	Asia	Japan	"Hosei bridge, Yamazaki-gawa Riv., Nagoya city, Aichi"	35.097963		136.919463																																											2020/06/22	2020/06/22
PRA000100	SAA007076	ST015				NagoyaCity23_2018Winter_PM	Water	"River water"	2018	2	27		PM		Fair	Asia	Japan	"Hosei bridge, Yamazaki-gawa Riv., Nagoya city, Aichi"	35.097963		136.919463															17.1	7.31																											2020/06/22	2020/06/22
PRA000100	SAA007077	ST015				NagoyaCity24_2018Winter_AM	Water	"River water"	2018	2	27		AM		Fair	Asia	Japan	"Johoku bridge, Hori-kawa Riv., Nagoya city, Aichi"	35.192455		136.903276																																											2020/06/22	2020/06/22
PRA000100	SAA007078	ST015				NagoyaCity24_2018Winter_PM	Water	"River water"	2018	2	27		PM		Fair	Asia	Japan	"Johoku bridge, Hori-kawa Riv., Nagoya city, Aichi"	35.192455		136.903276															16.8	7.05																											2020/06/22	2020/06/22
PRA000100	SAA007079	ST015				NagoyaCity25_2018Winter_AM	Water	"River water"	2018	2	27		AM		Fair	Asia	Japan	"Nakatsuchito bridge, Hori-kawa Riv., Nagoya city, Aichi"	35.190792		136.899916																																											2020/06/22	2020/06/22
PRA000100	SAA007080	ST015				NagoyaCity25_2018Winter_PM	Water	"River water"	2018	2	27		PM		Fair	Asia	Japan	"Nakatsuchito bridge, Hori-kawa Riv., Nagoya city, Aichi"	35.190792		136.899916															16.5	7.04																											2020/06/22	2020/06/22
PRA000100	SAA007081	ST015				NagoyaCity26_2018Winter_AM	Water	"River water"	2018	2	27		AM		Fair	Asia	Japan	"Ooseko bridge, Hori-kawa Riv., Nagoya city, Aichi"	35.119784		136.903238																																											2020/06/22	2020/06/22
PRA000100	SAA007082	ST015				NagoyaCity26_2018Winter_PM	Water	"River water"	2018	2	27		PM		Fair	Asia	Japan	"Ooseko bridge, Hori-kawa Riv., Nagoya city, Aichi"	35.119784		136.903238															15.9	7.36																											2020/06/22	2020/06/22
PRA000100	SAA007083	ST015				NagoyaCity27_2018Winter_AM	Water	"River water"	2018	2	27		AM		Fair	Asia	Japan	"Kizaemon bridge, Hori-kawa Riv., Nagoya city, Aichi"	35.111162		136.900416																																											2020/06/22	2020/06/22
PRA000100	SAA007084	ST015				NagoyaCity27_2018Winter_PM	Water	"River water"	2018	2	27		PM		Fair	Asia	Japan	"Kizaemon bridge, Hori-kawa Riv., Nagoya city, Aichi"	35.111162		136.900416															15.3	7.39																											2020/06/22	2020/06/22
PRA000100	SAA007085	ST015				NagoyaCity28_2018Winter_AM	Water	"River water"	2018	2	27		AM		Fair	Asia	Japan	"Maizuru bridge, Shinhori-kawa Riv., Nagoya city, Aichi"	35.159524		136.91																																											2020/06/22	2020/06/22
PRA000100	SAA007086	ST015				NagoyaCity28_2018Winter_PM	Water	"River water"	2018	2	27		PM		Fair	Asia	Japan	"Maizuru bridge, Shinhori-kawa Riv., Nagoya city, Aichi"	35.159524		136.91															17	7.24																											2020/06/22	2020/06/22
PRA000100	SAA007087	ST015				Tokyo29_2018Winter_AM	Water	"River water"	2018	2	27		AM		Fair	Asia	Japan	"Nagata bridge, Tama-gawa Riv., Tokyo"	35.739004		139.318815														9.2	8.2																												2020/06/22	2020/06/22
PRA000100	SAA007088	ST015				Tokyo29_2018Winter_PM	Water	"River water"	2018	2	27		PM		Cloudy	Asia	Japan	"Nagata bridge, Tama-gawa Riv., Tokyo"	35.739004		139.318815														13.1	16.2																												2020/06/22	2020/06/22
PRA000100	SAA007089	ST015				Tokyo30_2018Winter_AM	Water	"River water"	2018	2	27		AM		Cloudy	Asia	Japan	"Hino-bashi bridge, Tama-gawa Riv., Tokyo"	35.683052		139.412492														9.8	15.3																												2020/06/22	2020/06/22
PRA000100	SAA007090	ST015				Tokyo30_2018Winter_PM	Water	"River water"	2018	2	27		PM		Fair	Asia	Japan	"Hino-bashi bridge, Tama-gawa Riv., Tokyo"	35.683052		139.412492														13	16.2																												2020/06/22	2020/06/22
PRA000100	SAA007091	ST015				Tokyo31_2018Winter_AM	Water	"River water"	2018	2	27		AM		Cloudy	Asia	Japan	"Sekido bridge, Tama-gawa Riv., Tokyo"	35.653498		139.455179														7.3	12																												2020/06/22	2020/06/22
PRA000100	SAA007092	ST015				Tokyo31_2018Winter_PM	Water	"River water"	2018	2	27		PM		Fair	Asia	Japan	"Sekido bridge, Tama-gawa Riv., Tokyo"	35.653498		139.455179														13.8	14.3																												2020/06/22	2020/06/22
PRA000100	SAA007093	ST015				Tokyo32_2018Winter_AM	Water	"River water"	2018	2	27		AM		Fair	Asia	Japan	"Tamagawara-bashi bridge, Tama-gawa Riv., Tokyo"	35.643876		139.525471														10.3	14.2																												2020/06/22	2020/06/22
PRA000100	SAA007094	ST015				Tokyo32_2018Winter_PM	Water	"River water"	2018	2	27		PM		Fair	Asia	Japan	"Tamagawara-bashi bridge, Tama-gawa Riv., Tokyo"	35.643876		139.525471														12.6	14.6																												2020/06/22	2020/06/22
PRA000100	SAA007095	ST015				Tokyo33_2018Winter_AM	Water	"River water"	2018	2	27		AM		Cloudy	Asia	Japan	"Hoon-bashi bridge, Oguri-gawa Riv., Tokyo"	35.648532		139.457918														7.5	10.1																												2020/06/22	2020/06/22
PRA000100	SAA007096	ST015				Tokyo33_2018Winter_PM	Water	"River water"	2018	2	27		PM		Fair	Asia	Japan	"Hoon-bashi bridge, Oguri-gawa Riv., Tokyo"	35.648532		139.457918														13.8	12.6																												2020/06/22	2020/06/22
PRA000100	SAA007097	ST015				Tokyo34_2018Winter_AM	Water	"River water"	2018	2	27		AM		Cloudy	Asia	Japan	"Takahata bridge, Asa-kawa Riv., Tokyo"	35.664964		139.407388														6.8	10.1																												2020/06/22	2020/06/22
PRA000100	SAA007098	ST015				Tokyo34_2018Winter_PM	Water	"River water"	2018	2	27		PM		Fair	Asia	Japan	"Takahata bridge, Asa-kawa Riv., Tokyo"	35.664964		139.407388														11.7	14.3																												2020/06/22	2020/06/22
PRA000100	SAA007099	ST015				Tokyo35_2018Winter_AM	Water	"River water"	2018	2	21		AM		Fair	Asia	Japan	"Seiryu-bashi bridge, Yanase-gawa Riv., Kiyose city, Tokyo"	35.80483		139.538193														13	14.3																												2020/06/22	2020/06/22
PRA000100	SAA007100	ST015				Tokyo35_2018Winter_PM	Water	"River water"	2018	2	21		PM		Cloudy	Asia	Japan	"Seiryu-bashi bridge, Yanase-gawa Riv., Kiyose city, Tokyo"	35.80483		139.538193														10.8	15																												2020/06/22	2020/06/22
PRA000100	SAA007101	ST015				Tokyo36_2018Winter_AM	Water	"River water"	2018	2	21		AM		Fair	Asia	Japan	"Sakae bridge, Yanase-gawa Riv., Shiki city, Saitama"	35.835634		139.580318														10.8	18.8																												2020/06/22	2020/06/22
PRA000100	SAA007102	ST015				Tokyo36_2018Winter_PM	Water	"River water"	2018	2	21		PM		Fair	Asia	Japan	"Sakae bridge, Yanase-gawa Riv., Shiki city, Saitama"	35.835634		139.580318														14.2	19.2																												2020/06/22	2020/06/22
PRA000100	SAA007103	ST015				Tokyo37_2018Winter_AM	Water	"River water"	2019	1	9		AM		Fair	Asia	Japan	"Ohgi-ohashi bridge, Ara-kawa Riv., Adachi Ward, Tokyo"	35.757589		139.770681														5.7	10.5	7.38																											2020/06/22	2020/06/22
PRA000100	SAA007104	ST015				Tokyo37_2018Winter_PM	Water	"River water"	2019	1	9		PM		Fair	Asia	Japan	"Ohgi-ohashi bridge, Ara-kawa Riv., Adachi Ward, Tokyo"	35.757589		139.770681														6.4	10.8	7.48																											2020/06/22	2020/06/22
PRA000100	SAA007105	ST015				Tokyo38_2018Winter_AM	Water	"River water"	2019	1	9		AM		Fair	Asia	Japan	"Horikiri bridge, Ara-kawa Riv., Tokyo"	35.745773		139.819413														6.8	9.5	7.42																											2020/06/22	2020/06/22
PRA000100	SAA007106	ST015				Tokyo38_2018Winter_PM	Water	"River water"	2019	1	9		PM		Fair	Asia	Japan	"Horikiri bridge, Ara-kawa Riv., Tokyo"	35.745773		139.819413														7.3	9.8	7.37																											2020/06/22	2020/06/22
PRA000100	SAA007107	ST015				Tokyo39_2018Winter_AM	Water	"River water"	2019	1	8		AM		Fair	Asia	Japan	"Odai Bridge, Sumida-gawa Riv., Tokyo"	35.754176		139.762566														11.2	12.5	7.04																											2020/06/22	2020/06/22
PRA000100	SAA007108	ST015				Tokyo39_2018Winter_PM	Water	"River water"	2019	1	8		PM		Fair	Asia	Japan	"Odai Bridge, Sumida-gawa Riv., Tokyo"	35.754176		139.762566														13	13	7.08																											2020/06/22	2020/06/22
PRA000100	SAA007109	ST015				Tokyo40_2018Winter_AM	Water	"River water"	2019	1	8		AM		Fair	Asia	Japan	"Ryogoku Bridge, Sumida Riv., Tokyo"	35.694258		139.788704														12	11.5	7.8																											2020/06/22	2020/06/22
PRA000100	SAA007110	ST015				Tokyo40_2018Winter_PM	Water	"River water"	2019	1	8		PM		Fair	Asia	Japan	"Ryogoku Bridge, Sumida Riv., Tokyo"	35.694258		139.788704														12	11.5	7.53																											2020/06/22	2020/06/22
PRA000100	SAA007111	ST015				Tokyo41_2018Winter_AM	Water	"River water"	2018	3	6		AM		Fair	Asia	Japan	"Shiodome bridge, Naka-gawa Riv., Saitama"	35.800727		139.85166														11.5	14.5																												2020/06/22	2020/06/22
PRA000100	SAA007112	ST015				Tokyo41_2018Winter_PM	Water	"River water"	2018	3	6		PM		Fair	Asia	Japan	"Shiodome bridge, Naka-gawa Riv., Saitama"	35.800727		139.85166														11.1	14																												2020/06/22	2020/06/22
PRA000100	SAA007113	ST015				Tokyo42_2018Winter_AM	Water	"River water"	2018	3	6		AM		Fair	Asia	Japan	"Heiwa bridge, Naka-gawa Riv., Tokyo"	35.727687		139.848471														14	13.5																												2020/06/22	2020/06/22
PRA000100	SAA007114	ST015				Tokyo42_2018Winter_PM	Water	"River water"	2018	3	6		PM		Fair	Asia	Japan	"Heiwa bridge, Naka-gawa Riv., Tokyo"	35.727687		139.848471														12.1	14.5																												2020/06/22	2020/06/22
PRA000100	SAA007115	ST015				FukuokaCity01_2018Summer_AM	Water	"River water"	2018	7	25		AM		Fair	Asia	Japan	"Kasuya-ohashi bridge, Kubara-gawa Riv., Fukuoka city"	33.63292		130.478904														36.1	31	8.3		29.5																									2020/10/2	2020/10/2
PRA000100	SAA007116	ST015				FukuokaCity01_2018Summer_PM	Water	"River water"	2018	7	25		PM		Fair	Asia	Japan	"Kasuya-ohashi bridge, Kubara-gawa Riv., Fukuoka city"	33.63292		130.478904														37.5	33	8.8		30.3																									2020/10/2	2020/10/2
PRA000100	SAA007117	ST015				FukuokaCity02_2018Summer_AM	Water	"River water"	2018	7	25		AM		Fair	Asia	Japan	"Okawa-bashi bridge, Tatara-gawa Riv., Fukuoka"	33.625244		130.475672														31	29.3	8		23.9																									2020/10/2	2020/10/2
PRA000100	SAA007118	ST015				FukuokaCity02_2018Summer_PM	Water	"River water"	2018	7	25		PM		Fair	Asia	Japan	"Okawa-bashi bridge, Tatara-gawa Riv., Fukuoka"	33.625244		130.475672														35	32	8.5		23.6																									2020/10/2	2020/10/2
PRA000100	SAA007119	ST015				FukuokaCity03_2018Summer_AM	Water	"River water"	2018	7	25		AM		Fair	Asia	Japan	"Amouzu-bashi bridge, upstream of Tatara-gawa Riv., Fukuoka"	33.630287		130.46797														35	31	7.8		25.1																									2020/10/2	2020/10/2
PRA000100	SAA007120	ST015				FukuokaCity03_2018Summer_PM	Water	"River water"	2018	7	25		PM		Fair	Asia	Japan	"Amouzu-bashi bridge, upstream of Tatara-gawa Riv., Fukuoka"	33.630287		130.46797														33.2	30.8	8.2		25																									2020/10/2	2020/10/2
PRA000100	SAA007121	ST015				FukuokaCity04_2018Summer_AM	Water	"River water"	2018	7	25		AM		Fair	Asia	Japan	"Najima-bashi bridge, downstream of Tatara-gawa Riv., Fukuoka"	33.639706		130.426939														37.1	31.5	7.8		1650																									2020/10/2	2020/10/2
PRA000100	SAA007122	ST015				FukuokaCity04_2018Summer_PM	Water	"River water"	2018	7	25		PM		Fair	Asia	Japan	"Najima-bashi bridge, downstream of Tatara-gawa Riv., Fukuoka"	33.639706		130.426939														38	31	7.7		1420																									2020/10/2	2020/10/2
PRA000100	SAA007123	ST015				FukuokaCity05_2018Summer_AM	Water	"River water"	2018	7	25		AM		Fair	Asia	Japan	"Kyuya-bashi bridge, downstream of Sue-gawa Riv., Fukuoka"	33.624055		130.430771														34.3	31.8	8.5		402																									2020/10/2	2020/10/2
PRA000100	SAA007124	ST015				FukuokaCity05_2018Summer_PM	Water	"River water"	2018	7	25		PM		Fair	Asia	Japan	"Kyuya-bashi bridge, downstream of Sue-gawa Riv., Fukuoka"	33.624055		130.430771														36.2	33	8.5		603																									2020/10/2	2020/10/2
PRA000100	SAA007125	ST015				FukuokaCity06_2018Summer_AM	Water	"River water"	2018	7	25		AM		Fair	Asia	Japan	"Tounomoto-bashi bridge, downstream of Umi-gawa Riv., Fukuoka"	33.623557		130.430194														33	30	7.6		891																									2020/10/2	2020/10/2
PRA000100	SAA007126	ST015				FukuokaCity06_2018Summer_PM	Water	"River water"	2018	7	25		PM		Fair	Asia	Japan	"Tounomoto-bashi bridge, downstream of Umi-gawa Riv., Fukuoka"	33.623557		130.430194														35	31.8	7.6		849																									2020/10/2	2020/10/2
PRA000100	SAA007127	ST015				FukuokaCity01_2018Winter_AM	Water	"River water"	2018	2	13		AM		Fair	Asia	Japan	"Kasuya-ohashi bridge, Kubara-gawa Riv., Fukuoka city"	33.63292		130.478904																8		38																									2020/10/2	2020/10/2
PRA000100	SAA007128	ST015				FukuokaCity01_2018Winter_PM	Water	"River water"	2018	2	13		PM		Fair	Asia	Japan	"Kasuya-ohashi bridge, Kubara-gawa Riv., Fukuoka city"	33.63292		130.478904																8.5		36.6																									2020/10/2	2020/10/2
PRA000100	SAA007129	ST015				FukuokaCity02_2018Winter_AM	Water	"River water"	2018	2	13		AM		Fair	Asia	Japan	"Okawa-bashi bridge, Tatara-gawa Riv., Fukuoka"	33.625244		130.475672																8.1		24.8																									2020/10/2	2020/10/2
PRA000100	SAA007130	ST015				FukuokaCity02_2018Winter_PM	Water	"River water"	2018	2	13		PM		Fair	Asia	Japan	"Okawa-bashi bridge, Tatara-gawa Riv., Fukuoka"	33.625244		130.475672																8.2		26.7																									2020/10/2	2020/10/2
PRA000100	SAA007131	ST015				FukuokaCity03_2018Winter_AM	Water	"River water"	2018	2	13		AM		Fair	Asia	Japan	"Amouzu-bashi bridge, upstream of Tatara-gawa Riv., Fukuoka"	33.630287		130.46797																8.1		27.2																									2020/10/2	2020/10/2
PRA000100	SAA007132	ST015				FukuokaCity03_2018Winter_PM	Water	"River water"	2018	2	13		PM		Fair	Asia	Japan	"Amouzu-bashi bridge, upstream of Tatara-gawa Riv., Fukuoka"	33.630287		130.46797																8.1		30																									2020/10/2	2020/10/2
PRA000100	SAA007133	ST015				FukuokaCity04_2018Winter_AM	Water	"River water"	2018	2	13		AM		Fair	Asia	Japan	"Najima-bashi bridge, downstream of Tatara-gawa Riv., Fukuoka"	33.639706		130.426939																7.7		2210																									2020/10/2	2020/10/2
PRA000100	SAA007134	ST015				FukuokaCity04_2018Winter_PM	Water	"River water"	2018	2	13		PM		Fair	Asia	Japan	"Najima-bashi bridge, downstream of Tatara-gawa Riv., Fukuoka"	33.639706		130.426939																7.8		1010																									2020/10/2	2020/10/2
PRA000100	SAA007135	ST015				FukuokaCity05_2018Winter_AM	Water	"River water"	2018	2	13		AM		Fair	Asia	Japan	"Kyuya-bashi bridge, downstream of Sue-gawa Riv., Fukuoka"	33.624055		130.430771																7.5		790																									2020/10/2	2020/10/2
PRA000100	SAA007136	ST015				FukuokaCity05_2018Winter_PM	Water	"River water"	2018	2	13		PM		Fair	Asia	Japan	"Kyuya-bashi bridge, downstream of Sue-gawa Riv., Fukuoka"	33.624055		130.430771																8.5		163.8																									2020/10/2	2020/10/2
PRA000100	SAA007137	ST015				FukuokaCity06_2018Winter_AM	Water	"River water"	2018	2	13		AM		Fair	Asia	Japan	"Tounomoto-bashi bridge, downstream of Umi-gawa Riv., Fukuoka"	33.623557		130.430194																7.5		797																									2020/10/2	2020/10/2
PRA000100	SAA007138	ST015				FukuokaCity06_2018Winter_PM	Water	"River water"	2018	2	13		PM		Fair	Asia	Japan	"Tounomoto-bashi bridge, downstream of Umi-gawa Riv., Fukuoka"	33.623557		130.430194																8		261																									2020/10/2	2020/10/2
PRA000109	SAA007467	ST031				HN-RD-1	Air	"Road dust (Urban)"	2016	8	10					Asia	Vietnam	"Tran Nhat Duat, Hoan Kiem, Hanoi"	21.03527778	21.03888889	105.8519444	105.8541667																																									"Pooled (n=4); Coodinates: 1_1:N 21.03888889 E 105.8519444; 1_2:N 21.03722222 E 105.8530556; 1_3:N 21.03666667 E 105.8536111; 1_4:N 21.03527778 E 105.8541667; Sampling spot: Residential/Commercial/Motorbikes and car repairing shops; Traffic: Asphalt, High traffic (bus, cars, motorbikes); "	2020/11/20	2020/11/20
PRA000109	SAA007499	ST031				HN-RD-2	Air	"Road dust (Urban)"	2016	8	10					Asia	Vietnam	"Tran Quang, Khai Hoan Kiem, Hanoi"	21.02638889	21.03361111	105.8555556	105.8577778																																									"Pooled(n=4); Coodinates: 2_1:N 21.03361111 E 105.8555556; 2_2:N 21.03333333 E 105.8569444; 2_3:N 21.02638889 E 105.8575; 2_4:N 21.02888889 E 105.8577778; Sampling spot: Residential; Commercial; Highrise buildings; Motorbikes and cars repairing shops; Traffic: High traffic (bus, cars, motorbikes); "	2020/11/20	2020/11/20
PRA000109	SAA007468	ST031				HN-RD-3	Air	"Road dust (Urban)"	2016	8	8					Asia	Vietnam	"Le Thanh Tong (school yard), Hoan Kiem, Hanoi"	21.02083333	21.02416667	105.8575	105.8586111																																									"Pooled (n=4); Coodinates: 3_1:N 21.02416667 E 105.8575; 3_2:N 21.02083333 E 105.8586111; 3_3:N 21.02111111 E 105.8583333; 3_4:N 21.02083333 E 105.8583333; Sampling spot: Universities; Traffic: Concrete, Meium traffic, Car and motorbike park;"	2020/11/20	2020/11/20
PRA000109	SAA007500	ST031				HN-RD-4	Air	"Road dust (Urban)"	2016	8	9					Asia	Vietnam	"Le Thanh Tong (road), Hoan Kiem, Hanoi"	21.01916667	21.02416667	105.8575	105.8586111																																									"Pooled(n=5); Coodinates: 4_1:N 21.01916667 E 105.8586111; 4_2:N 21.02083333 E 105.8583333; 4_3:N 21.02416667 E 105.8575; 4_4:N 21.02166667 E 105.8577778; 4_5:N 21.0225 E 105.8575; Sampling spot: Residential; Offices; Universities; Traffic: Medium traffic(cars, bus, motorbikes); "	2020/11/20	2020/11/20
PRA000109	SAA007501	ST031				HN-RD-5	Air	"Road dust (Urban)"	2016	8	12					Asia	Vietnam	"Tran Hung Dao, Hoan Kiem, Hanoi"	21.01916667	21.02333333	105.8444444	105.8580556																																									"Pooled(n=5); Coodinates: 5_1:N 21.01916667 E 105.8580556; 5_2:N 21.02055556 E 105.8541667; 5_3:N 21.02194444 E 105.8505556; 5_4:N 21.0225 E 105.8466667; 5_5:N 21.02333333 E 105.8444444; Sampling spot: Commercial; Office buildings; Traffic: High traffic (bus, cars, motorbikes); "	2020/11/20	2020/11/20
PRA000109	SAA007502	ST031				HN-RD-6	Air	"Road dust (Urban)"	2016	8	9					Asia	Vietnam	"Ly Thuong Kiet, Hoan Kiem, Hanoi"	21.02166667	21.02472222	105.8458333	105.8561111																																									"Pooled(n=5); Coodinates: 6_1:N 21.02166667 E 105.8561111; 6_2:N 21.02277778 E 105.8547222; 6_3:N 21.02333333 E 105.8494444; 6_4:N 21.02444444 E 105.8472222; 6_5:N 21.02472222 E 105.8458333; Sampling spot: Office buildings; Hotels and restaurants; Traffic: High traffic (cars, motorbikes); "	2020/11/20	2020/11/20
PRA000109	SAA007483	ST031				TN-RD-1	Air	"Road dust (Industrial zone)"	2016	9	7					Asia	Vietnam	"Cach Mang Thang 10, Thang Loi Ward, Song Cong City, Thai Nguyen province"	21.47583333	21.47638889	105.8311111	105.8319444																																									"Pooled (n=4); Coodinates: 1_1:N 21.47583333 E 105.8311111; 1_2:N 21.47611111 E 105.8313889; 1_3:N 21.47638889 E 105.8316667; 1_4:N 21.47638889 E 105.8319444; Sampling spot: Residential/Industrial (Song Cong I Industrial Park); Traffic: Asphalt (Main road), Medium traffic (trucks, cars and motorbikes); "	2020/11/20	2020/11/20
PRA000109	SAA007484	ST031				TN-RD-2	Air	"Road dust (Industrial zone)"	2016	9	7					Asia	Vietnam	"Cach Mang Thang 10, Luong Chau Ward, Song Cong City, Thai Nguyen province"	21.47555556	21.47583333	105.8294444	105.8302778																																									"Pooled (n=4); Coodinates: 2_1:N 21.47583333 E 105.8302778; 2_2:N 21.47555556 E 105.83; 2_3:N 21.47555556 E 105.8297222; 2_4:N 21.47555556 E 105.8294444; Sampling spot: Residential/Industrial; Traffic: Medium traffic;"	2020/11/20	2020/11/20
PRA000109	SAA007485	ST031				TN-RD-3	Air	"Road dust (Industrial zone)"	2016	9	7					Asia	Vietnam	"3 Thang 2, Mo Che Ward, Song Cong City, Thai Nguyen province"	21.47388889	21.47388889	105.8277778	105.8283333																																									"Pooled (n=3); Coodinates: 3_1:N 21.47388889 E 105.8277778; 3_2:N 21.47388889 E 105.8280556; 3_3:N 21.47388889 E 105.8283333; Sampling spot: Residential/Industrial; Traffic: Medium traffic;"	2020/11/20	2020/11/20
PRA000109	SAA007486	ST031				TN-RD-4	Air	"Road dust (Industrial zone)"	2016	9	7					Asia	Vietnam	"3 Thang 2, Mo Che Ward, Song Cong City, Thai Nguyen province"	21.47	21.47	105.8277778	105.8280556																																									"Pooled (n=2); Coodinates: 4_1:N 21.47 E 105.8277778; 4_2:N 21.47 E 105.8280556; Sampling spot: Residential/Industrial; Traffic: Medium traffic;"	2020/11/20	2020/11/20
PRA000109	SAA007487	ST031				TN-RD-5	Air	"Road dust (Industrial zone)"	2016	9	7					Asia	Vietnam	"Cach Mang Thang 8, Thang Loi Ward, Song Cong City, Thai Nguyen province"	21.47138889	21.47166667	105.8425	105.8427778																																									"Pooled (n=2); Coodinates: 5_1:N 21.47166667 E 105.8425; 5_2:N 21.47138889 E 105.8427778; Sampling spot: Residential/Industrial; Traffic: Medium traffic;"	2020/11/20	2020/11/20
PRA000109	SAA007488	ST031				TN-RD-6	Air	"Road dust (Industrial zone)"	2016	9	7					Asia	Vietnam	"Cach Mang Thang 10, Bach Quang Ward, Song Cong City, Thai Nguyen province"	21.48222222		105.855																																										"Sampling spot: Residential/Industrial; Traffic: Medium traffic; "	2020/11/20	2020/11/20
PRA000109	SAA007503	ST031				HP-RD-1	Air	"Road dust (Rural/Suburban)"	2016	8	12					Asia	Vietnam	"Mac Dang Doanh, Duong Kinh district, Hai Phong city"	20.79444444	20.79805556	106.6819444	106.7091667																																									"Pooled(n=5); Coodinates: 1_1:N 20.79805556 E 106.7091667; 1_2:N 20.7975 E 106.7066667; 1_3:N 20.79611111 E 106.6994444; 1_4:N 20.795 E 106.6897222; 1_5:N 20.79444444 E 106.6819444; Sampling spot: Residential; Commercial; Near school; Industrial (near some factories: leather shoes, candles, toys, plastic,...); Traffic: Asphalt; Main road; Medium traffic (containers, trucks, cars, motorbikes); "	2020/11/20	2020/11/20
PRA000109	SAA007504	ST031				HP-RD-2	Air	"Road dust (Rural/Suburban)"	2016	8	13					Asia	Vietnam	"Road in village, Duong Kinh district, Hai Phong city"	20.78888889	20.79666667	106.6780556	106.7047222																																									"Pooled(n=5); Coodinates: 2_1:N 20.78888889 E 106.6780556; 2_2:N 20.78972222 E 106.6858333; 2_3:N 20.79166667 E 106.6894444; 2_4:N 20.79388889 E 106.6922222; 2_5:N 20.79666667 E 106.7047222; Sampling spot: Agricultural; Residential; Traffic: Asphalt; Minor road among rice fields and river; Low traffic (motorbikes, bicycles); "	2020/11/20	2020/11/20
PRA000109	SAA007505	ST031				HP-RD-3	Air	"Road dust (Rural/Suburban)"	2016	8	13					Asia	Vietnam	"Road on rice fields, Duong Kinh district, Hai Phong city"	20.79388889	20.79527778	106.6827778	106.7019444																																									"Pooled(n=5); Coodinates: 3_1:N 20.79388889 E 106.6827778; 3_2:N 20.79444444 E 106.6836111; 3_3:N 20.79472222 E 106.6838889; 3_4:N 20.795 E 106.685; 3_5:N 20.79527778 E 106.7019444; Sampling spot: Agricultural; Traffic: Concrete; Minor road on rice fields; Low traffic (motorbikes, bicycles); "	2020/11/20	2020/11/20
PRA000109	SAA007506	ST031				HP-RD-4	Air	"Road dust (Rural/Suburban)"	2016	8	15					Asia	Vietnam	"Road in village, Duong Kinh district, Hai Phong city"	20.79083333	20.79222222	106.6769444	106.6783333																																									"Pooled(n=5); Coodinates: 4_1:N 20.79083333 E 106.6769444; 4_2:N 20.79138889 E 106.6775; 4_3:N 20.79138889 E 106.6777778; 4_4:N 20.79166667 E 106.6780556; 4_5:N 20.79222222 E 106.6783333; Sampling spot: Residential; Traffic: Concrete; Minor road; Low traffic (motorbikes, bicycles); "	2020/11/20	2020/11/20
PRA000109	SAA007507	ST031				HP-RD-5	Air	"Road dust (Rural/Suburban)"	2016	9	3					Asia	Vietnam	"Pham Van Dong, Duong Kinh district, Hai Phong city"	20.78888889	20.79777778	106.7116667	106.7188889																																									"Pooled(n=5); Coodinates: 5_1:N 20.79777778 E 106.7116667; 5_2:N 20.79194444 E 106.7158333; 5_3:N 20.79055556 E 106.7169444; 5_4:N 20.78944444 E 106.7188889; 5_5:N 20.78888889 E 106.7188889; Sampling spot: Residential; Commercial (clothes shops); Traffic: Asphalt; Main road; Medium traffic (trucks, cars, motorbikes); "	2020/11/20	2020/11/20
PRA000109	SAA007508	ST031				HP-RD-6	Air	"Road dust (Rural/Suburban)"	2016	9	3					Asia	Vietnam	"Road in village, Duong Kinh district, Hai Phong city"	20.79194444	20.79222222	106.6775	106.6811111																																									"Pooled(n=5); Coodinates: 6_1:N 20.79222222 E 106.6811111; 6_2:N 20.79194444 E 106.68; 6_3:N 20.79194444 E 106.6791667; 6_4:N 20.79194444 E 106.6783333; 6_5:N 20.79194444 E 106.6775; Sampling spot: Residential; Traffic: Concrete; Minor road; Medium traffic (motorbikes, no car); "	2020/11/20	2020/11/20
PRA000109	SAA007493	ST031				BG-RD-1	Air	"Road dust (Rural)"	2016	8	10					Asia	Vietnam	"Way to rice fields, Mai Dinh Commune, Hiep Hoa District, Bac Giang province"	21.23611111	21.2375	105.9402778	105.9416667																																									"Pooled (n=5); Coodinates: 1_1:N 21.2375 E 105.9416667; 1_2:N 21.23722222 E 105.9413889; 1_3:N 21.23666667 E 105.9408333; 1_4:N 21.23638889 E 105.9408333; 1_5:N 21.23611111 E 105.9402778; Sampling spot: Agricultural/Residential; Traffic: Concrete, Low traffic (motorbikes);"	2020/11/20	2020/11/20
PRA000109	SAA007494	ST031				BG-RD-2	Air	"Road dust (Rural)"	2016	8	19					Asia	Vietnam	"Way to rice fields, Mai Dinh Commune, Hiep Hoa District, Bac Giang province"	21.24027778	21.24083333	105.9408333	105.9427778																																									"Pooled (n=5); Coodinates: 2_1:N 21.24083333 E 105.9427778; 2_2:N 21.24055556 E 105.9422222; 2_3:N 21.24055556 E 105.9416667; 2_4:N 21.24055556 E 105.9413889; 2_5:N 21.24027778 E 105.9408333; Sampling spot: Agricultural/Residential; Traffic: Concrete, Low traffic (motorbikes);"	2020/11/20	2020/11/20
PRA000109	SAA007495	ST031				BG-RD-3	Air	"Road dust (Rural)"	2016	8	19					Asia	Vietnam	"Way on rice fields, Mai Dinh Commune, Hiep Hoa District, Bac Giang province"	21.23583333	21.23694444	105.9444444	105.945																																									"Pooled (n=5); Coodinates: 3_1:N 21.23611111 E 105.945; 3_2:N 21.23583333 E 105.9447222; 3_3:N 21.23638889 E 105.9447222; 3_4:N 21.23666667 E 105.9444444; 3_5:N 21.23694444 E 105.9444444; Sampling spot: Residential, far from rice fields; Traffic: Concrete, Medium traffic (motorbikes); "	2020/11/20	2020/11/20
PRA000109	SAA007498	ST031				BG-RD-4	Air	"Road dust (Rural)"	2016	8	20					Asia	Vietnam	"Way in village, Mai Dinh Commune, Hiep Hoa District"	21.23444444	21.23583333	105.9444444	105.945																																									"Pooled(n=5); Coodinates: 4_1:N 21.23388889 E 105.9452778; 4_2:N 21.23444444 E 105.945; 4_3:N 21.23472222 E 105.9447222; 4_4:N 21.23527778 E 105.9447222; 4_5:N 21.23583333 E 105.9444444; Sampling spot: Residential; Traffic: Concrete, Medium traffic (motorbikes), far from rice fields; "	2020/11/20	2020/11/20
PRA000109	SAA007496	ST031				BG-RD-5	Air	"Road dust (Rural)"	2016	8	27					Asia	Vietnam	"Way on rice fields, Mai Dinh Commune, Hiep Hoa District, Bac Giang province"	21.23722222	21.23944444	105.9386111	105.9405556																																									"Pooled (n=5); Coodinates: 5_1:N 21.23777778 E 105.9402778; 5_2:N 21.23722222 E 105.9405556; 5_3:N 21.23861111 E 105.9394444; 5_4:N 21.23888889 E 105.9391667; 5_5:N 21.23944444 E 105.9386111; Sampling spot: Agricultural; Traffic: Land, Low traffic; "	2020/11/20	2020/11/20
PRA000109	SAA007497	ST031				BG-RD-6	Air	"Road dust (Rural)"	2016	8	27					Asia	Vietnam	"Way on rice fields, Mai Dinh Commune, Hiep Hoa District, Bac Giang province"	21.23444444	21.235	105.9552778	105.9580556																																									"Pooled (n=5); Coodinates: 6_1:N 21.23444444 E 105.9561111; 6_2:N 21.23444444 E 105.9552778; 6_3:N 21.23444444 E 105.9569444; 6_4:N 21.23444444 E 105.9577778; 6_5:N 21.235 E 105.9580556; Sampling spot: Agricultural; Traffic: Land, Low traffic; "	2020/11/20	2020/11/20
PRA000114	SAA007837	ST029				ELV-1	Air	"Outdoor air"	2015	10				"40 days (Sep-Oct 2015)"		Asia	Vietnam	"Thuyen village, Bac Giang province"	21.28158889		106.2312806																																										"ELV workshop; Deployment position: Semi-open facility; at 2-3.5m above the ground; Collected using PUF-PAS method with foam discs; "	2021/2/5	2021/2/5
PRA000114	SAA007838	ST029				ELV-2	Air	"Outdoor air"	2015	10				"40 days (Sep-Oct 2015)"		Asia	Vietnam	"Thuyen village, Bac Giang province"	21.28029444		106.2322722																																										"ELV workshop; Deployment position: Semi-open facility; at 2-3.5m above the ground; Collected using PUF-PAS method with foam discs; "	2021/2/5	2021/2/5
PRA000114	SAA007839	ST029				ELV-3	Air	"Outdoor air"	2015	10				"40 days (Sep-Oct 2015)"		Asia	Vietnam	"Thuyen village, Bac Giang province"	21.28090556		106.2320361																																										"ELV workshop; Deployment position: Semi-open facility; at 2-3.5m above the ground; Collected using PUF-PAS method with foam discs; "	2021/2/5	2021/2/5
PRA000114	SAA007840	ST029				ELV-4	Air	"Outdoor air"	2015	10				"40 days (Sep-Oct 2015)"		Asia	Vietnam	"Thuyen village, Bac Giang province"	21.28045		106.2339333																																										"ELV workshop; Deployment position: Semi-open facility; at 2-3.5m above the ground; Collected using PUF-PAS method with foam discs; "	2021/2/5	2021/2/5
PRA000114	SAA007841	ST029				ELV-5	Air	"Outdoor air"	2015	10				"40 days (Sep-Oct 2015)"		Asia	Vietnam	"Thuyen village, Bac Giang province"	21.28203333		106.2312																																										"ELV workshop; Deployment position: Semi-open facility; at 2-3.5m above the ground; Collected using PUF-PAS method with foam discs; "	2021/2/5	2021/2/5
PRA000114	SAA007842	ST029				ELV-6	Air	"Outdoor air"	2015	10				"40 days (Sep-Oct 2015)"		Asia	Vietnam	"Thuyen village, Bac Giang province"	21.28167222		106.2309																																										"ELV workshop; Deployment position: Semi-open facility; at 2-3.5m above the ground; Collected using PUF-PAS method with foam discs; "	2021/2/5	2021/2/5
PRA000114	SAA007843	ST029				ELV-7	Air	"Outdoor air"	2015	10				"39 days (Sep-Oct 2015)"		Asia	Vietnam	"Thuyen village, Bac Giang province"	21.28197778		106.2304722																																										"ELV workshop; Deployment position: Semi-open facility; at 2-3.5m above the ground; Collected using PUF-PAS method with foam discs; "	2021/2/5	2021/2/5
PRA000114	SAA007844	ST029				ELV-8	Air	"Outdoor air"	2015	10				"39 days (Sep-Oct 2015)"		Asia	Vietnam	"Thuyen village, Bac Giang province"	21.28257222		106.231275																																										"ELV workshop; Deployment position: Semi-open facility; at 2-3.5m above the ground; Collected using PUF-PAS method with foam discs; "	2021/2/5	2021/2/5
PRA000114	SAA007845	ST029				ELV-9	Air	"Outdoor air"	2015	10				"39 days (Sep-Oct 2015)"		Asia	Vietnam	"Thuyen village, Bac Giang province"	21.28293056		106.2317083																																										"ELV workshop; Deployment position: Semi-open facility; at 2-3.5m above the ground; Collected using PUF-PAS method with foam discs; "	2021/2/5	2021/2/5
PRA000114	SAA007846	ST029				RH-1	Air	"Outdoor air"	2015	10				"39 days (Sep-Oct 2015)"		Asia	Vietnam	"Thuyen village, Bac Giang province"	21.28063889		106.2333556																																										"Rural house in ELV site; Deployment position: Entrance porch; at 2-3.5m above the ground; Collected using PUF-PAS method with foam discs; "	2021/2/5	2021/2/5
PRA000114	SAA007847	ST029				WR-1	Air	"Outdoor air"	2015	10				"49 days (Sep-Oct 2015)"		Asia	Vietnam	"Thai Nguyen province"	21.53286667		105.7489833																																										"Plastic recycling facility; Deployment position: Semi-open facility; at 2-3.5m above the ground; Collected using PUF-PAS method with foam discs; "	2021/2/5	2021/2/5
PRA000114	SAA007848	ST029				WR-2	Air	"Outdoor air"	2015	10				"49 days (Sep-Oct 2015)"		Asia	Vietnam	"Thai Nguyen province"	21.53288333		105.7479167																																										"Waste oil refining facility; Deployment position: Semi-open facility; at 2-3.5m above the ground; Collected using PUF-PAS method with foam discs; "	2021/2/5	2021/2/5
PRA000114	SAA007849	ST029				WR-3	Air	"Outdoor air"	2015	10				"49 days (Sep-Oct 2015)"		Asia	Vietnam	"Thai Nguyen province"	21.53217222		105.7494194																																										"Rubber melting kiln; Deployment position: Semi-open facility; at 2-3.5m above the ground; Collected using PUF-PAS method with foam discs; "	2021/2/5	2021/2/5
PRA000114	SAA007850	ST033				UH-1	Air	"Indoor air"	2015	10				"39 days (Sep-Oct 2015)"		Asia	Vietnam	"Hanoi city"	21.96311389		105.8321444																																										"Urban house; Deployment position: Bed room; at 2-3.5m from the floor; Collected using PUF-PAS method with foam discs; "	2021/2/5	2021/2/5
PRA000114	SAA007851	ST033				UH-2	Air	"Indoor air"	2015	10				"31 days (Sep-Oct 2015)"		Asia	Vietnam	"Hanoi city"	21.06272222		105.7816417																																										"Urban house; Deployment position: Living and bedroom; at 2-3.5m from the floor; Collected using PUF-PAS method with foam discs; "	2021/2/5	2021/2/5
PRA000114	SAA007852	ST033				UH-3	Air	"Indoor air"	2015	10				"34 days (Sep-Oct 2015)"		Asia	Vietnam	"Hanoi city"	21.96528889		105.7718139																																										"Urban house; Deployment position: Living room; at 2-3.5m from the floor; Collected using PUF-PAS method with foam discs; "	2021/2/5	2021/2/5
PRA000123	SAA009044	ST015				Hokkaido_w3_2020	Water	"River water"	2020	11	24	2020-11-24T11:40			Cloudy	Asia	Japan	"Ishikarikakokyo Bridge, Mouth of Riv. Ishikari (Ishikari City), Hokkaido"	43.22861111		141.3519444														2.6	4.8	7.6	10.4	14			68			"Grayish brown"																			2022/11/25	2022/11/25
PRA000123	SAA009047	ST015				Iwate_w1-1_2020	Water	"River water"	2020	11	4	2020-11-04T10:22			Cloudy	Asia	Japan	"Toyosawa-bashi Bridge, Riv. Toyosawa (Hanamaki City), Iwate"	39.38166667		141.1191667														8	10	7.3	11	10			<1			"Light green"																			2022/11/25	2022/11/25
PRA000123	SAA009048	ST015				Miyagi_w1_2020	Water	"River water"	2020	10	27	2020-10-27T13:50			Fair	Asia	Japan	"Futatsuya-bashi Bridge, Riv. Hasama (Tome City), Miyagi"	38.57138889		141.2136111														18.5	18.7	7.7	10	19			2			"Light yellow"																			2022/11/25	2022/11/25
PRA000123	SAA009049	ST015				Miyagi_w2_2020	Water	"River water"	2020	10	27	2020-10-27T10:10			Fair	Asia	Japan	"Sakura-hodoukyou Bridge, Riv. Shiroishi (Shibata Town), Miyagi"	38.06083333		140.7677778														16.5	13.7	7.7	10	15			1			Clear																			2022/11/25	2022/11/25
PRA000123	SAA009050	ST015				Akita_w1_2020	Water	"River water"	2020	10	20	2020-10-20T10:06			Fair	Asia	Japan	"Akita Canal (Akita City), Akita"	39.75083333		140.0586111														17.2	16.2	7.5	6.9	1200			4		2.9	"Dark yellow green"																			2022/11/25	2022/11/25
PRA000123	SAA009236	ST015				Fukushima_w3_2020	Water	"River water"	2020	10	14	2020-10-14T11:20			Fair	Asia	Japan	"Confluence of Riv. Nigori and Riv. Omori (Fukushima City), Fukushima"	37.73972222		140.4666667														26.8	18.5	7.6	9.9	14			16			"Yellowish brown_Light"																			2022/11/25	2022/11/25
PRA000123	SAA009241	ST015				Saitama_w1_2020	Water	"River water"	2020	11	4	2020-11-04T13:02			Fair	Asia	Japan	"Dou-hashi Bridge, Riv. Naka (Kazo City), Saitama"	36.13638889		139.645														17.9	15.3	7.9	10.6	40			9			"Yellow green_Light"																			2022/11/25	2022/11/25
PRA000123	SAA009057	ST015				Saitama_w2_2020	Water	"River water"	2020	11	4	2020-11-04T10:30			Fair	Asia	Japan	"Akigase-Shusuizeki Weir, Riv. Ara (Shiki City), Saitama"	35.84055556		139.6044444														15.1	14.4	7.9	9.7	25			3			"Light yellow green"																			2022/11/25	2022/11/25
PRA000123	SAA009060	ST014				Chiba_w2_2020	Water	"Sea water"	2020	10	27	2020-10-27T10:10			Cloudy	Asia	Japan	"Ichihara-Anesaki Coast, Chiba"	35.52166667		140.0283333														17.4	19.1	7.6	8.3	4200			1		4.7	"Dark green"																			2022/11/25	2022/11/25
PRA000123	SAA009063	ST015				YokohamaCity_w1_2020	Water	"River water"	2020	11	26	2020-11-26T09:24			Fair	Asia	Japan	"Kamenoko-bashi Bridge, Riv. Tsurumi (Yokohama City), Kanagawa"	35.514622		139.607871														13.9	18.9	7.3	8.2	35			2			Clear																			2022/11/25	2022/11/25
PRA000123	SAA009064	ST014				YokohamaCity_w3_2020	Water	"Sea water"	2020	11	18	2020-11-18T10:18			Fair	Asia	Japan	"Yokohama Port, Kanagawa"	35.45555556		139.6636111														15.5	19	8.3	8	4500			3		5	Clear																			2022/11/25	2022/11/25
PRA000123	SAA009065	ST015				YokohamaCity_w4_2020	Water	"River water"	2020	11	26	2020-11-26T11:25			Fair	Asia	Japan	"Yoshikura-bashi Bridge, Riv. Kashio (Yokohama City), Kanagawa"	35.40027778		139.5352778														12.2	15.9	8.3	13.3	36			7			Clear																			2022/11/25	2022/11/25
PRA000123	SAA009066	ST015				Niigata_w2_2020	Water	"River water"	2020	11	19	2020-11-19T09:30			Fair	Asia	Japan	"Downstream of Riv. Shinano (Niigata City), Niigata"	37.88305556		139.0155556														17.2	11.5	7.4	10	13			13			"Light yellow"																			2022/11/25	2022/11/25
PRA000123	SAA009246	ST015				Toyama_w5_2020	Water	"River water"	2020	10	15	2020-10-15T10:46			Cloudy	Asia	Japan	"Ishida-bashi Bridge, Riv. Kurose (Kurobe City), Toyama"	36.8625		137.4213889														18.8	15.6	7.6	10	16			5			Brown_Light																			2022/11/25	2022/11/25
PRA000123	SAA009247	ST015				Toyama_w1_2020	Water	"River water"	2020	10	15	2020-10-15T09:23			Cloudy	Asia	Japan	"Daimon-ohashi Bridge, Riv. Sho (Imizu City), Toyama"	36.735		137.0436111														18.2	17.9	7.6	9.3	8.3			<1			Clear																			2022/11/25	2022/11/25
PRA000123	SAA009068	ST015				Fukui_w1_2020	Water	"River water"	2020	10	22	2020-10-22T10:00			Cloudy	Asia	Japan	"Mishima-bashi Bridge, Riv. Shono (Tsuruga City), Fukui"	35.6475		136.0627778														19.5	17	7.4	9.7	8.5			<1			Clear																			2022/11/25	2022/11/25
PRA000123	SAA009249	ST015				Nagano_w4_2020	Water	"River water"	2020	11	6	2020-11-06T10:30			Cloudy	Asia	Japan	"Manzai Ohashi Shita, Riv. Achi (Iida City), Nagano"	35.42305556		137.8127778														10	8.2	7.3	11	5.9			<1			Clear																			2022/11/25	2022/11/25
PRA000123	SAA009073	ST014				Aichi_w2-1_2020	Water	"Sea water"	2020	11	10	2020-11-10T13:38			Fair	Asia	Japan	"Nagoya Port, West of Shiomi Wharf, Aichi"	35.07111111		136.8691667														14.4	20	7.9	6.8	4500			2		2.5	Clear																			2022/11/25	2022/12/13
PRA000123	SAA009075	ST015				NagoyaCity_w1_2020	Water	"River water"	2020	10	29	2020-10-29T09:50			Fair	Asia	Japan	"Minatoshinbashi Bridge, Riv. Hori (Nagoya City), Aichi"	35.09805556		136.8925														19	21.8	7.2	2.3				3		2.1	Brown																			2022/11/25	2022/11/25
PRA000123	SAA009076	ST014				NagoyaCity_w3_2020	Water	"Sea water"	2020	10	29	2020-10-29T12:00			Fair	Asia	Japan	"Nagoya Port, South of Shiomi Wharf, Aichi"	35.04944444		136.8661111														19.8	22.7	8	4.5				5		2.3	"Greenish brown"																			2022/11/25	2022/11/25
PRA000123	SAA009077	ST014				Mie_w1_2020	Water	"Sea water"	2020	10	28	2020-10-28T10:15			Cloudy	Asia	Japan	"Yokkaichi Port, Mie"	34.94944444		136.6530556														18.1	18.5	8.6	12.4	3800			5		1.5	"Greenish brown"																			2022/11/25	2022/11/25
PRA000123	SAA009250	ST015				Shiga_w1-2_2020	Water	"Lake water"	2020	10	28	2020-10-28T09:20			Cloudy	Asia	Japan	"Lake Biwa (center, offshore of Minamihira), Shiga"	35.18527778		135.9733333														17	18.2	8.1	9.9	12			2		3.4	Green																			2022/11/25	2022/11/25
PRA000123	SAA009251	ST015				Shiga_w2-2_2020	Water	"Lake water"	2020	10	28	2020-10-28T11:40			Cloudy	Asia	Japan	"Lake Biwa (center, offshore of Karasaki), Shiga"	35.04611111		135.8955556														17.9	18	8.1	9.9	12			1		3	Green																			2022/11/25	2022/11/25
PRA000123	SAA009082	ST015				Osaka_w1_2020	Water	"River water"	2020	11	25	2020-11-25T09:00			Fair	Asia	Japan	"Mouth of Riv. Yamato (Sakai City), Osaka"	34.60833333		135.4325														13.7	15.7	7.7	7.7				2		1.3	"Light yellow"																			2022/11/25	2022/11/25
PRA000123	SAA009083	ST015				OsakaCity_w1_2020	Water	"River water"	2020	10	28	2020-10-28T10:28			Fair	Asia	Japan	"Kema-bashi Bridge, Riv. Oh-kawa (Osaka City), Osaka"	34.72		135.5186111														18.6	17.7	7.5	9.3	14			5			"Light grayish yellow"																			2022/11/25	2022/11/25
PRA000123	SAA009084	ST014				OsakaCity_w2_2020	Water	"Sea water"	2020	10	27	2020-10-27T08:06			Fair	Asia	Japan	"Osaka Port, Osaka"	34.65861111		135.4313889														17	19	7.6	6	1900			2		2.7	"Light grayish yellow"																			2022/11/25	2022/11/25
PRA000123	SAA009086	ST014				Hyogo_w3_2020	Water	"Sea water"	2020	10	28	2020-10-28T10:30			Fair	Asia	Japan	"Offshore of Himeji, Hyogo"	34.76194444		134.6697222														19.7	21.6	8.1	7.1	4400			4		4	"Greenish blue"																			2022/11/25	2022/11/25
PRA000123	SAA009088	ST014				Kobe_w1_2020	Water	"Sea water"	2020	11	17	2020-11-17T09:50			Fair	Asia	Japan	"Center of Kobe Port, Hyogo"	34.66444444		135.1944444														19	18.5	7.8	7.3				1		5.7	"Greenish brown"																			2022/11/25	2022/11/25
PRA000123	SAA009091	ST015				Wakayama_w9_2020	Water	"River water"	2020	11	5	2020-11-05T11:00			Fair	Asia	Japan	"Noguchi-bashi Bridge, Riv. Hidaka (Gobou City), Wakayama"	33.90388889		135.1761111														17.3	17.2	7	10	6.9			3			"Light green"																			2022/11/25	2022/11/25
PRA000123	SAA009103	ST014				KitakyushuCity_w1_2020	Water	"Sea water"	2020	11	18	2020-11-18T09:15			Fair	Asia	Japan	"Dokai Bay (Kitakyushu City), Fukuoka"	33.90388889		130.8158333														19	18	8.1	7.8	4600			<1		3.5	Clear																			2022/11/25	2022/11/25
PRA000123	SAA009104	ST014				FukuokaCity_w1_2020	Water	"Sea water"	2020	10	20	2020-10-20T08:47			Fair	Asia	Japan	"Hakata Bay, Fukuoka"	33.60833333		130.3297222														19.5	21.5	8	6.8	4600			3		1.9	"Dark green"																			2022/11/25	2022/11/25
PRA000123	SAA009105	ST014				Saga_w1_2020	Water	"Sea water"	2020	10	28	2020-10-28T10:23			Cloudy	Asia	Japan	"Imari Bay, Saga"	33.34		129.8208333														15	22	8.4	5.1	4300			14		3.3	Clear																			2022/11/25	2022/11/25
PRA000123	SAA009256	ST015				Okinawa_w2_2020	Water	"River water"	2020	10	16	2020-10-16T12:30			Fair	Asia	Japan	"Ryuto-bashi Bridge, Riv. Ngado (Haebaru Town), Okinawa"	26.190184		127.707745														30.6	30.3	7.5	4.4	3,100			82			"Grayish brown_Light"																			2022/11/25	2022/11/25
PRA000123	SAA009110	ST014				Okinawa_w1_2020	Water	"Sea water"	2020	10	14	2020-10-14T11:20			Fair	Asia	Japan	"Naha Port, Okinawa"	26.21222222		127.665														27.3	27.3	7.6	6.3	4500			10		1.2	Clear																			2022/11/25	2022/11/25
